DW6064 Weather Reports


time (UTC)temp
F
wind
direction
speed
knots
gust
knots
rain 1hr
in
rain 24hr
in
rain mn
in
humidity
%
barometer
mb
20260504002105 56 273 2.6 7.0 0.00 0.00 0.00 39 1013.2
20260504001603 57 258 3.5 7.0 0.00 0.00 0.00 39 1013.3
20260504001041 57 255 2.6 7.8 0.00 0.00 0.00 39 1013.2
20260504000540 57 244 3.5 7.8 0.00 0.00 0.00 38 1013.2
20260504000057 58 258 2.6 8.7 0.00 0.00 0.00 38 1013.2
20260503235553 58 247 3.5 8.7 0.00 0.00 0.00 37 1013.1
20260503235027 58 242 4.3 9.6 0.00 0.00 0.00 36 1013.1
20260503234603 58 262 5.2 9.6 0.00 0.00 0.00 36 1013.0
20260503234037 59 269 6.1 8.7 0.00 0.00 0.00 36 1012.9
20260503233529 59 253 5.2 8.7 0.00 0.00 0.00 35 1013.0
20260503233051 59 272 3.5 8.7 0.00 0.00 0.00 36 1012.9
20260503232551 59 252 4.3 10.4 0.00 0.00 0.00 35 1012.9
20260503232023 60 311 4.3 10.4 0.00 0.00 0.00 35 1012.8
20260503231603 60 270 3.5 10.4 0.00 0.00 0.00 34 1012.8
20260503231041 60 286 7.0 12.2 0.00 0.00 0.00 33 1012.7
20260503230533 60 292 6.1 12.2 0.00 0.00 0.00 33 1012.7
20260503230023 61 298 3.5 8.7 0.00 0.00 0.00 33 1012.6
20260503225542 61 280 3.5 8.7 0.00 0.00 0.00 33 1012.7
20260503225041 61 300 4.3 11.3 0.00 0.00 0.00 33 1012.7
20260503224539 61 271 6.1 16.5 0.00 0.00 0.00 33 1012.7
20260503224034 61 277 6.1 16.5 0.00 0.00 0.00 32 1012.6
20260503223553 62 234 7.0 13.0 0.00 0.00 0.00 32 1012.7
20260503223025 62 221 7.8 12.2 0.00 0.00 0.00 31 1012.7
20260503222538 62 251 4.3 10.4 0.00 0.00 0.00 33 1012.7
20260503222032 62 278 5.2 10.4 0.00 0.00 0.00 34 1012.7
20260503221525 62 265 3.5 13.9 0.00 0.00 0.00 33 1012.8
20260503221044 62 244 7.0 13.9 0.00 0.00 0.00 33 1012.8
20260503220543 63 254 5.2 11.3 0.00 0.00 0.00 32 1012.8
20260503220042 63 270 3.5 12.2 0.00 0.00 0.00 32 1012.7
20260503215541 63 272 7.0 12.2 0.00 0.00 0.00 31 1012.7
20260503215101 64 279 6.1 12.2 0.00 0.00 0.00 32 1012.7
20260503214540 64 318 7.0 12.2 0.00 0.00 0.00 31 1012.7
20260503214041 64 315 5.2 14.8 0.00 0.00 0.00 31 1012.8
20260503213540 64 296 7.0 14.8 0.00 0.00 0.00 30 1012.8
20260503213040 64 283 7.0 16.5 0.00 0.00 0.00 31 1012.8
20260503212535 64 277 7.0 16.5 0.00 0.00 0.00 30 1012.8
20260503212031 64 250 7.0 17.4 0.00 0.00 0.00 32 1012.8
20260503211526 63 250 7.8 17.4 0.00 0.00 0.00 32 1012.7
20260503211044 63 224 9.6 15.6 0.00 0.00 0.00 32 1012.7
20260503210542 62 279 8.7 17.4 0.00 0.00 0.00 33 1012.7
20260503210104 61 207 10.4 17.4 0.00 0.00 0.00 33 1012.7
20260503205538 61 250 6.1 13.9 0.00 0.00 0.00 34 1012.8
20260503205058 61 278 8.7 13.9 0.00 0.00 0.00 33 1012.8
20260503204558 62 263 4.3 12.2 0.00 0.00 0.00 34 1012.8
20260503204041 63 302 7.0 12.2 0.00 0.00 0.00 32 1012.8
20260503203541 64 250 6.1 13.0 0.00 0.00 0.00 31 1012.9
20260503203041 64 305 7.0 13.0 0.00 0.00 0.00 31 1012.9
20260503202540 64 259 4.3 12.2 0.00 0.00 0.00 30 1012.9
20260503202043 64 290 7.0 14.8 0.00 0.00 0.00 31 1013.1
20260503201603 64 279 10.4 14.8 0.00 0.00 0.00 33 1013.1
20260503201041 63 309 3.5 11.3 0.00 0.00 0.00 34 1013.0
20260503200539 63 293 6.1 11.3 0.00 0.00 0.00 35 1013.1
20260503200034 63 306 3.5 11.3 0.00 0.00 0.00 32 1013.1
20260503195528 63 265 7.0 11.3 0.00 0.00 0.00 33 1013.1
20260503195044 63 286 4.3 10.4 0.00 0.00 0.00 32 1013.3
20260503194604 63 292 4.3 11.3 0.00 0.00 0.00 32 1013.4
20260503194105 64 329 7.0 12.2 0.00 0.00 0.00 31 1013.4
20260503193541 65 259 6.1 12.2 0.00 0.00 0.00 32 1013.5
20260503193042 65 267 6.1 15.6 0.00 0.00 0.00 30 1013.6
20260503192536 66 262 6.1 15.6 0.00 0.00 0.00 31 1013.7
20260503192033 66 281 7.8 16.5 0.00 0.00 0.00 32 1013.7
20260503191527 66 306 7.8 16.5 0.00 0.00 0.00 31 1013.8
20260503191106 66 296 9.6 13.9 0.00 0.00 0.00 30 1013.7
20260503190602 66 242 6.1 14.8 0.00 0.00 0.00 31 1013.8
20260503190038 65 32 5.2 14.8 0.00 0.00 0.00 32 1013.8
20260503185539 64 324 9.6 15.6 0.00 0.00 0.00 33 1013.9
20260503185041 65 335 7.8 15.6 0.00 0.00 0.00 30 1014.1
20260503184536 65 292 6.1 15.6 0.00 0.00 0.00 33 1014.0
20260503184033 64 315 3.5 17.4 0.00 0.00 0.00 31 1014.1
20260503183529 64 269 7.8 17.4 0.00 0.00 0.00 34 1014.2
20260503183025 63 275 7.0 15.6 0.00 0.00 0.00 32 1014.1
20260503182538 64 292 7.8 15.6 0.00 0.00 0.00 31 1014.2
20260503182034 63 265 5.2 13.0 0.00 0.00 0.00 33 1014.2
20260503181529 63 279 7.8 16.5 0.00 0.00 0.00 34 1014.2
20260503181025 63 293 6.1 16.5 0.00 0.00 0.00 30 1014.3
20260503180543 64 322 7.0 14.8 0.00 0.00 0.00 28 1014.4
20260503180037 64 328 8.7 13.9 0.00 0.00 0.00 30 1014.3
20260503175558 64 318 5.2 13.0 0.00 0.00 0.00 29 1014.2
20260503175100 63 328 4.3 11.3 0.00 0.00 0.00 35 1014.3
20260503174540 62 329 5.2 13.9 0.00 0.00 0.00 33 1014.4
20260503174103 62 286 5.2 13.9 0.00 0.00 0.00 32 1014.4
20260503173541 62 248 6.1 22.6 0.00 0.00 0.00 35 1014.5
20260503173042 62 269 11.3 22.6 0.00 0.00 0.00 33 1014.4
20260503172537 62 264 10.4 18.2 0.00 0.00 0.00 32 1014.4
20260503172059 61 235 10.4 18.2 0.00 0.00 0.00 34 1014.5
20260503171538 61 234 6.1 15.6 0.00 0.00 0.00 33 1014.6
20260503171040 61 290 5.2 15.6 0.00 0.00 0.00 34 1014.7
20260503170540 61 252 8.7 19.1 0.00 0.00 0.00 31 1014.7
20260503150538 53 288 4.3 10.4 0.00 0.00 0.00 44 1015.8
20260503131026 48 316 6.1 13.9 0.00 0.00 0.00 53 1015.9
20260503130546 47 329 8.7 13.9 0.00 0.00 0.00 52 1016.0
20260503110534 38 294 1.7 6.1 0.00 0.00 0.00 70 1015.6
20260503081537 38 275 0.9 2.6 0.00 0.00 0.00 70 1013.9
20260503081034 38 292 0.0 2.6 0.00 0.00 0.00 69 1013.9
20260503080553 39 292 0.9 2.6 0.00 0.00 0.00 70 1013.8
20260503072552 39 234 0.9 2.6 0.00 0.00 0.00 68 1013.6
20260503072028 40 273 0.9 2.6 0.00 0.00 0.00 68 1013.5
20260503071545 40 273 0.0 5.2 0.00 0.00 0.00 68 1013.5
20260503071042 40 261 1.7 5.2 0.00 0.00 0.00 67 1013.5
20260503070541 40 286 0.9 1.7 0.00 0.00 0.00 68 1013.4
20260503055033 42 290 2.6 5.2 0.00 0.00 0.00 65 1013.4
20260503054525 42 297 2.6 5.2 0.00 0.00 0.00 65 1013.3
20260503054045 42 298 0.9 4.3 0.00 0.00 0.00 65 1013.4
20260503053536 42 288 2.6 7.8 0.00 0.00 0.00 65 1013.4
20260503053033 42 307 2.6 7.8 0.00 0.00 0.00 65 1013.4
20260503052526 42 315 2.6 8.7 0.00 0.00 0.00 65 1013.4
20260503052044 43 285 2.6 8.7 0.00 0.00 0.00 65 1013.5
20260503051536 43 306 3.5 7.8 0.00 0.00 0.00 66 1013.6
20260503051041 43 292 3.5 7.0 0.00 0.00 0.00 67 1013.5
20260503050539 43 336 3.5 7.0 0.00 0.00 0.00 67 1013.4
20260503050042 44 321 2.6 4.3 0.00 0.00 0.00 66 1013.4
20260503045537 44 342 2.6 4.3 0.00 0.00 0.00 66 1013.4
20260503045041 44 319 2.6 5.2 0.00 0.00 0.00 65 1013.5
20260503044540 44 351 1.7 5.2 0.00 0.00 0.00 65 1013.5
20260503044034 44 311 2.6 5.2 0.00 0.00 0.00 65 1013.5
20260503043553 44 342 2.6 7.0 0.00 0.00 0.00 65 1013.5
20260503043028 44 355 1.7 7.8 0.00 0.00 0.00 65 1013.6
20260503042543 44 309 5.2 7.8 0.00 0.00 0.00 65 1013.8
20260503042042 44 313 5.2 7.8 0.00 0.00 0.00 65 1013.7
20260503041542 44 308 2.6 4.3 0.00 0.00 0.00 65 1013.8
20260503041043 44 301 1.7 4.3 0.00 0.00 0.00 66 1013.9
20260503040533 44 278 2.6 4.3 0.00 0.00 0.00 65 1013.9
20260503040032 44 300 0.9 2.6 0.00 0.00 0.00 64 1013.8
20260503035525 44 300 0.9 3.5 0.00 0.00 0.00 64 1013.9
20260503035059 45 299 1.7 3.5 0.00 0.00 0.00 64 1014.0
20260503034542 45 302 1.7 6.1 0.00 0.00 0.00 63 1014.0
20260503034105 45 284 2.6 6.1 0.00 0.00 0.00 63 1014.0
20260503033543 45 321 1.7 5.2 0.00 0.00 0.00 63 1014.0
20260503033105 46 288 2.6 5.2 0.00 0.00 0.00 62 1014.0
20260503032542 46 316 2.6 3.5 0.00 0.00 0.00 61 1014.0
20260503032041 46 309 2.6 7.0 0.00 0.00 0.00 61 1013.9
20260503031538 47 318 3.5 7.8 0.00 0.00 0.00 60 1013.9
20260503031033 47 309 2.6 8.7 0.00 0.00 0.00 59 1013.8
20260503030529 47 338 2.6 9.6 0.00 0.00 0.00 59 1013.8
20260503030024 47 338 3.5 9.6 0.00 0.00 0.00 60 1013.9
20260503025602 47 327 4.3 12.2 0.00 0.00 0.00 59 1013.9
20260503025041 48 309 3.5 13.0 0.00 0.00 0.00 58 1013.7
20260503024533 48 26 5.2 13.0 0.00 0.00 0.00 59 1013.6
20260503024028 48 32 5.2 11.3 0.00 0.00 0.00 59 1013.8
20260503023542 48 333 3.5 9.6 0.00 0.00 0.00 59 1013.9
20260503023103 48 355 4.3 9.6 0.00 0.00 0.00 59 1013.9
20260503022541 48 346 2.6 8.7 0.00 0.00 0.00 59 1014.0
20260503022036 48 355 2.6 7.8 0.00 0.00 0.00 59 1014.0
20260503021531 48 321 3.5 7.8 0.00 0.00 0.00 58 1014.0
20260503021030 48 9 2.6 8.7 0.00 0.00 0.00 58 1014.1
20260503020600 48 309 6.1 8.7 0.00 0.00 0.00 58 1014.1
20260503020044 48 326 6.1 8.7 0.00 0.00 0.00 57 1014.1
20260503015542 48 319 4.3 10.4 0.00 0.00 0.00 57 1014.1
20260503015042 48 321 5.2 10.4 0.00 0.00 0.00 56 1014.1
20260503014542 48 315 6.1 9.6 0.00 0.00 0.00 56 1014.1
20260503014040 48 321 5.2 12.2 0.00 0.00 0.00 56 1014.1
20260503013539 48 327 4.3 13.0 0.00 0.00 0.00 56 1014.0
20260503013036 49 336 5.2 13.0 0.00 0.00 0.00 55 1013.9
20260503012530 49 340 3.5 11.3 0.00 0.00 0.00 55 1013.9
20260503012024 49 355 6.1 11.3 0.00 0.00 0.00 55 1013.7
20260503011602 49 13 5.2 11.3 0.00 0.00 0.00 55 1013.5
20260503011040 49 43 5.2 11.3 0.00 0.00 0.00 56 1013.5
20260503010541 49 34 5.2 14.8 0.00 0.00 0.00 55 1013.5
20260503010043 49 346 5.2 14.8 0.00 0.00 0.00 54 1013.5
20260503005533 50 327 4.3 12.2 0.00 0.00 0.00 54 1013.4
20260503005056 50 318 6.1 12.2 0.00 0.00 0.00 54 1013.1
20260503004530 50 15 5.2 11.3 0.00 0.00 0.00 54 1013.2
20260503004024 50 313 2.6 11.3 0.00 0.00 0.00 53 1013.1
20260503003535 50 323 7.0 13.0 0.00 0.00 0.00 53 1013.1
20260503003029 50 321 7.8 13.0 0.00 0.00 0.00 53 1013.2
20260503002539 51 344 6.1 13.0 0.00 0.00 0.00 52 1013.1